Simultaneous Nadir Overpasses (SNOs) Predictions

Prediction of SNOs between FY3D and LANDSAT-8 Satellite Orbit:

Table of predicted SNOs for the next 14.0 days since TLE Epoch: 11/9/2019
Index Date (FY3D) Time (FY3D) Lat,Lon (FY3D) SZA (FY3D ) Date (LANDSAT-8) Time (LANDSAT-8) Lat,Lon (LANDSAT-8) SZA (LANDSAT-8 ) Distance(km) Time Diff (sec)
1 11/09/2019 08:55:02 70.44, 43.04 87.15 11/09/2019 08:56:05 70.46, 43.00 87.17 2.47 63
2 11/09/2019 09:45:44 -70.34,-149.49 92.94 11/09/2019 09:45:35 -70.34,-149.53 92.94 1.69 9
3 11/09/2019 10:36:19 69.80, 18.65 86.53 11/09/2019 10:35:09 69.86, 17.42 86.58 47.67 70
4 11/12/2019 01:11:27 70.45, 158.91 87.92 11/12/2019 01:12:33 70.43, 158.85 87.89 3.17 66
5 11/12/2019 02:02:09 -70.35, -33.61 92.18 11/12/2019 02:02:02 -70.38, -33.60 92.16 2.60 7
6 11/12/2019 02:52:46 69.92, 134.36 87.40 11/12/2019 02:51:35 69.94, 133.43 87.42 35.84 71
7 11/14/2019 17:27:53 70.47, -85.23 88.65 11/14/2019 17:29:01 70.46, -85.22 88.64 1.52 68
8 11/14/2019 18:18:35 -70.37, 82.25 91.45 11/14/2019 18:18:31 -70.35, 82.25 91.47 1.94 4
9 11/14/2019 19:09:13 69.99,-109.85 88.19 11/14/2019 19:08:01 70.08,-110.50 88.27 26.26 72
10 11/17/2019 09:44:19 70.50, 30.63 89.35 11/17/2019 09:45:29 70.49, 30.70 89.34 2.82 70
11 11/17/2019 10:35:01 -70.39,-161.89 90.76 11/17/2019 10:34:59 -70.38,-161.83 90.77 2.47 2
12 11/17/2019 11:25:41 70.12, 5.84 88.99 11/17/2019 11:24:28 70.16, 5.50 89.02 13.69 73
13 11/20/2019 02:00:46 70.58, 146.40 90.06 11/20/2019 02:01:57 70.51, 146.61 89.99 10.92 71
14 11/20/2019 02:51:26 -70.36, -45.95 90.15 11/20/2019 02:51:28 -70.35, -45.99 90.17 2.09 2
15 11/20/2019 03:42:08 70.20, 121.62 89.70 11/20/2019 03:40:55 70.24, 121.49 89.73 6.20 73
16 11/22/2019 18:17:12 70.66, -97.84 90.73 11/22/2019 18:18:23 70.58, -97.40 90.66 18.29 71
17 11/22/2019 19:07:51 -70.39, 69.90 89.53 11/22/2019 19:07:55 -70.37, 69.92 89.55 2.19 4
18 11/22/2019 19:58:34 70.28,-122.61 90.37 11/22/2019 19:57:22 70.25,-122.60 90.34 3.03 72




NCC Satellite Simultaneous Nadir Overpasses (SNOs) Prediction Service
